Location: Schommer Observatory
(40.5200°N, 74.4500°W)
Time: 07:35:28
(UTC-04:00)

Vanguard 1 Rocket - All Passes

Search period start: 26 May 2018 00:00
Search period end: 05 June 2018 00:00
Orbit: 652 x 4225 km, 34.3° (Epoch: 25 May)

Date Brightness Start Highest point End Pass type
(mag) Time Alt. Az. Time Alt. Az. Time Alt. Az.
26 May - 00:51:26 10° WSW 01:07:54 71° S 01:33:53 10° E visible
26 May - 03:18:37 10° W 03:40:16 69° SSW 04:05:35 10° ESE visible
26 May - 05:48:57 10° W 06:11:42 44° SW 06:32:00 10° SSE daylight
26 May - 08:28:37 10° W 08:39:03 14° WSW 08:48:18 10° SSW daylight
26 May - 21:18:25 10° S 21:27:37 30° SE 21:42:38 10° E visible
26 May - 23:40:24 10° WSW 23:54:08 64° SSE 00:18:09 10° E visible
27 May - 02:06:12 10° W 02:25:11 73° S 02:51:32 10° ESE visible
27 May - 04:34:46 10° W 04:57:29 56° SSW 05:20:37 10° SE visible
27 May - 07:08:20 10° W 07:26:44 26° SW 07:42:43 10° S daylight
27 May - 20:11:20 10° SSE 20:17:00 16° SE 20:24:34 10° E daylight
27 May - 22:30:06 10° SW 22:41:26 51° SSE 23:02:00 10° E visible
28 May - 00:54:27 10° WSW 01:10:33 73° S 01:36:29 10° E visible
28 May - 03:21:37 10° W 03:42:42 65° SSW 04:07:56 10° SE visible
28 May - 05:52:09 10° W 06:13:35 38° SW 06:33:30 10° SSE daylight
28 May - 21:20:39 10° SSW 21:29:48 35° SE 21:45:38 10° E visible
28 May - 23:43:21 10° WSW 23:56:45 67° SSE 00:20:43 10° E visible
29 May - 02:09:14 10° W 02:27:47 71° S 02:54:00 10° ESE visible
29 May - 04:37:49 10° W 04:59:36 49° SSW 05:22:31 10° SE visible
29 May - 07:12:50 10° W 07:28:26 20° SW 07:42:40 10° SSW daylight
29 May - 20:12:31 10° S 20:19:04 20° SE 20:28:42 10° E daylight
29 May - 22:32:53 10° SW 22:43:55 56° SSE 23:04:37 10° E visible
30 May - 00:57:31 10° W 01:13:15 73° S 01:39:01 10° ESE visible
30 May - 03:24:39 10° W 03:45:03 60° SSW 04:10:05 10° SE visible
30 May - 05:55:39 10° W 06:15:26 32° SW 06:34:33 10° S daylight
30 May - 21:23:09 10° SSW 21:32:08 41° SE 21:48:28 10° E visible
30 May - 23:46:23 10° WSW 23:59:26 70° S 00:23:15 10° E visible
31 May - 02:12:19 10° W 02:30:21 67° SSW 02:56:20 10° ESE visible
31 May - 04:41:00 10° W 05:01:40 43° SW 05:24:04 10° SSE visible
31 May - 07:18:49 10° W 07:30:11 15° SW 07:41:02 10° SSW daylight
31 May - 20:14:24 10° S 20:21:16 25° SE 20:32:12 10° E daylight
31 May - 22:35:49 10° WSW 22:46:33 61° SSE 23:07:11 10° E visible
01 Jun - 01:00:38 10° W 01:15:58 71° S 01:41:28 10° ESE visible
01 Jun - 03:27:44 10° W 03:47:22 54° SSW 04:11:58 10° SE visible
01 Jun - 05:59:37 10° W 06:17:17 26° SW 06:34:57 10° S daylight
01 Jun - 19:08:30 10° SE 19:11:03 11° SE 19:14:00 10° ESE daylight
01 Jun - 21:25:52 10° SW 21:34:38 47° SSE 21:51:11 10° E visible
01 Jun - 23:49:30 10° WSW 00:02:14 71° S 00:25:46 10° E visible
02 Jun - 02:15:25 10° W 02:32:54 62° SSW 02:58:29 10° SE visible
02 Jun - 04:44:24 10° W 05:03:43 37° SW 05:25:13 10° SSE visible
02 Jun - 20:16:40 10° SSW 20:23:37 31° SE 20:35:22 10° E daylight
02 Jun - 22:38:52 10° WSW 22:49:19 65° SSE 23:09:45 10° E visible
03 Jun - 01:03:46 10° W 01:18:42 68° S 01:43:48 10° ESE visible
03 Jun - 03:30:57 10° W 03:49:40 47° SSW 04:13:33 10° SSE visible
03 Jun - 06:04:24 10° W 06:19:12 20° SW 06:34:23 10° SSW daylight
03 Jun - 19:09:01 10° SSE 19:13:18 16° SE 19:19:02 10° E daylight
03 Jun - 21:28:44 10° SW 21:37:18 53° SSE 21:53:51 10° E visible
03 Jun - 23:52:39 10° W 00:05:03 70° S 00:28:14 10° ESE visible
04 Jun - 02:18:35 10° W 02:35:26 57° SSW 03:00:23 10° SE visible
04 Jun - 04:48:07 10° W 05:05:48 30° SW 05:25:50 10° S visible
04 Jun - 20:19:15 10° SSW 20:26:08 36° SE 20:38:20 10° E daylight
04 Jun - 22:41:59 10° WSW 22:52:10 67° S 23:12:17 10° E visible
